Regional Weather Roundup
Issued by NWS Newport/Morehead, NC

Current Version | Previous Version | Text Only | Print | Product List | Glossary On
Versions: 1 2 3 4 5 6 7 8 9 10 11 12 13 14 15 16 17 18 19 20 21 22 23 24 25 26 27 28 29 30 31 32 33 34 35 36 37 38 39 40 41 42 43 44 45 46 47 48 49 50
000 ASUS42 KMHX 292213 RWRMHX WEATHER ROUNDUP FOR EASTERN NORTH CAROLINA NATIONAL WEATHER SERVICE NEWPORT/MOREHEAD CITY NC 600 PM EDT MON JUN 29 2015 NOTE: "FAIR" INDICATES FEW OR NO CLOUDS BELOW 12,000 FEET WITH NO SIGNIFICANT WEATHER AND/OR OBSTRUCTIONS TO VISIBILITY NCZ015>017-031-032-045>047-102-103-292300- NORTH COAST CITY SKY/WX TMP DP RH WIND PRES REMARKS EDENTON N/A 84 68 58 SE7 29.94S ELIZABETH CITY PTSUNNY 82 68 62 SE13 29.95F KITTY HAWK MOCLDY 83 68 59 E7 29.95S MANTEO PTSUNNY 79 69 70 E9 29.96S $$ NCZ045>047-081-094-103-104-292300- CENTRAL COAST CITY SKY/WX TMP DP RH WIND PRES REMARKS FRISCO CLOUDY 79 70 74 CALM 29.95F SWANQUARTER N/A 86 N/A N/A S6 29.91S $$ NCZ095-097-098-100-101-292300- SOUTHERN COAST CITY SKY/WX TMP DP RH WIND PRES REMARKS BEAUFORT MOSUNNY 81 74 79 S9 29.94S CEDAR ISLAND N/A 86 N/A N/A SE9 29.97S JACKSONVILLE SUNNY 83 68 60 S9 29.93S PINEY ISLAND PTCLDY N/A N/A N/A S7 29.93F WILMINGTON SUNNY 84 72 67 S8 29.93S $$ NCZ011>013-027>030-043-044-078>080-089-090>093-098-292300- COASTAL PLAIN CITY SKY/WX TMP DP RH WIND PRES REMARKS AHOSKIE SUNNY 82 67 61 N3 29.93S CLINTON MOSUNNY 86 69 56 S3 29.92S ELIZABETHTOWN SUNNY 88 58 36 SW3 29.92S GOLDSBORO MOSUNNY 85 70 59 VRB6 29.90F GREENVILLE MOSUNNY 84 68 58 E9 29.94F HAVELOCK MOSUNNY 84 69 60 SE8 29.94F KENANSVILLE MOSUNNY 82 65 56 CALM 29.94S KINSTON SUNNY 84 66 54 S12 29.93F NEW BERN MOSUNNY 86 64 47 S8 29.94F RICHLANDS SUNNY 86 64 48 S9 29.93S ROCKY MOUNT MOSUNNY 89 58 34 S6 29.92F WASHINGTON MOSUNNY 83 65 54 SE8 29.93F WHITEVILLE SUNNY 85 61 44 CALM 29.93R $$ AMZ130-135-150-152-154-156-158-170-250-252-270-ANZ085-086-088-633-658-670-292300- MARINE OBSERVATIONS STATION/POSITION TIME TEMP WIND PRES WAVE SWELL AIR SEA DIR/SP/G HT/PER HT/PER (UTC) (F) (DEG/KT/KT) (MB) (FT/S) (FT/S) CHESAPEAKE LIGHT 2200 75 130/ 10/ 11 1015.1 64 E VA BEACH 2150 77 78 110/ 4/ 4 1014.7 3/ 8 3/ 8 DUCK 2100 78 68 120/ 9/ 11 1013.6 2 E DUCK 2111 74 N/A 2/ 8 OREGON INLET 2100 78 79 70/ 6/ 9 1014.4 13E OREGON INLT 2200 76 N/A 3/ 7 HATTERAS CG 2100 81 80 200/ 2/ 4 1014.0 DIAMOND BUOY 2150 80 81 270/ 4/ 6 1014.1 4/ 8 3/ 8 CAPE LOOKOUT 2200 81 200/ 9/ 12 1013.5 BEAUFORT LAB 2100 80 81 180/ 7/ 10 1013.3 30 SE NEW RVR IN 2108 81 82 210/ 12/ 14 1014.1 27 SE WRIGHTSVLE 2100 82 210/ 8/ 10 N/A 5 SE WRIGHTSVLE 2108 80 80 180/ 8/ 10 1013.7 225 S CAPE HAT 2150 80 80 200/ 17/ 21 1017.3 6/ 6 2/14 41 SE CHARLESTON 2150 82 83 210/ 12/ 14 1014.3 4/ 8 3/ 8 $$

USA.gov is the U.S. government's official web portal to all federal, state and local government web resources and services.